Location: Unspecified
(43.4354°N, 0.0000°E)
Time: 13:34:25
(UTC+00:00)

Courier 1B Rocket - Pass Details

Date: 24 June 2019
Orbit: 920 x 1202 km, 28.3° (Epoch: 16 August)

Event Time Altitude Azimuth Distance (km) Brightness Sun altitude
Exits shadow 03:38:41 - 215° (SW) 3,178 7.0 -6.8°
Reaches altitude 10° 03:39:52 10° 209° (SSW) 2,888 6.9 -6.6°
Maximum altitude 03:44:21 18° 169° (SSE) 2,284 6.7 -6.0°
Drops below altitude 10° 03:48:39 10° 128° (SE) 2,757 7.5 -5.4°
Sets 03:52:09 0° 110° (ESE) 3,658 8.5 -4.9°
